ATLAS 5 CENTAUR DEB, 44679

Orbit data source: Space-Track

ATLAS 5 CENTAUR DEB, 44679 is space debris in HEO originally from a launch on Wed, 17 Oct 2018 UTC launched from the Air Force Eastern Test Range (AFETR). Debris objects in space refer to the collection of defunct objects orbiting the Earth. Examples of debris include non-operational satellites, rocket bodies, and fragments generated from explosions, collisions, or faulty payload assembly.

Loading next visibility...
Identifier
44679, 2018-079AR
Orbit
HEO
Country
Flag of USUS
Related business
Flag of USUnited Launch Alliance/Lockheed Martin (US)
Manufacturer
ULA Decatur
Mission
Spacecraft
Bus & Motor
Unknown
Mass
Unknown
Launch date (UTC)
2018-10-17 (8 years ago)
Launch vehicle
Unknown
Launch site
Air Force Eastern Test Range (AFETR)
Object type
Payload
Rocket body
Debris
Shape & HBR
Unknown shape, 1.1 m
Radar Cross Section
Medium (>0.1 m² and <1 m²)

Expand to show TLE details & history
Last TLE update: 6 days ago

TLE from 6 days ago
0 ATLAS 5 CENTAUR DEB
1 44679U 18079AR  26154.72520552 -.00000079  00000-0  00000-0 0  9998
2 44679  13.4181  40.1778 4690963 302.0068  20.7542  1.79403029 46435
Epoch: 2026-06-03T17:24Z
TLE epoch observation values (Epoch: 2026-06-03T17:24:17.756Z)
Latitude
0.00008°
Longitude
-113.1331°
Altitude
11,525.048 km
Speed
5.531 km/s
True Right ascension
02h 40m 28s
True Declination
0° 00' 00"
Sunlit
Object was in daylight at epoch
Visualization orbit readout
Latitude
Unknown
Longitude
Unknown
Altitude
Unknown
Speed
Unknown
Apparent Right ascension
Unknown
Apparent Declination
Unknown
Sunlit
N/A
Visualization observer readout
Local Sidereal Time
06:09:20
Azimuth
Unknown
Elevation
Unknown
Doppler factor
Unknown
Orbital elements
Apogee altitude
35,655.507 km
Perigee altitude
8,812.029 km
Semi-major axis
28,611.905 km
Eccentricity
0.4691
Inclination
13.4181°
RAAN
40.1778°
Arg. of periapsis
302.0068°
True anomaly
58.0402°
Mean anomaly
20.7542°
Eccentric anomaly
36.88694°
Mean motion
0.44846 °/min
Orbital period
802.75 mins
BSTAR
0
Loading maneuver chart data...
Computing Atmospheric mass density...

Documentation

Showing up to 5 results
|